Notices

What's New in latest Release from April 7th, 2021:

- Updated Glossary, including Speed of Maximum Gust, and Total Hourly Precipitation

- Updated national and regional climate services offices contacts and prices information

- Addition of station inventory lists for 1981-2010, 1971-2000, and 1961-1990 Normals.

If you haven't already, please take our survey and provide feedback about our website: https://eccc.sondage-survey.ca/f/LanguageSelection.aspx?s=442ca660-fcf1-47c0-95a9-59707d6fd709

Hourly Data Report for November 01, 2020

MUSKOKA
ONTARIO
Current Station Operator: NAVCAN

44°58'29.000" N
79°18'12.000" W
281.90 m
6115529
71532
YQA

Download Data

Hourly Data (November 2020)
Hourly Data Report for November 1, 2020
TIME
LST
Temp Definition
°C
Dew Point Definition
°C
Rel Hum Definition
%
Precip. Amount Definition
mm

Wind Dir Definition
10's deg

Wind Spd Definition
km/h
Visibility Definition
km
Stn Press Definition
kPa
Hmdx Definition


Wind Chill Definition


Weather Definition


00:00 1.7 -1.1 82 0.0 14 24 16.1 98.03     LegendNANA
01:00 2.6 -0.2 82 0.0 15 24 16.1 97.84     Rain
02:00 3.4 0.5 81 0.0 15 18 16.1 97.71     LegendNANA
03:00 4.1 1.3 82 0.0 15 26 16.1 97.51     LegendNANA
04:00 3.9 2.3 89 0.0 15 24 16.1 97.32     Rain
05:00 4.5 2.9 89 0.0 15 18 16.1 97.16     Rain
06:00 5.8 3.7 86 0.0 15 18 16.1 96.99     Rain
07:00 5.5 3.7 88 54.1 15 18 16.1 96.80     Rain
08:00 5.6 4.6 93 LegendMM 15 17 11.3 96.69     Moderate Rain
09:00 6.3 5.6 95 LegendMM 18 13 9.7 96.62     Rain,Fog
10:00 5.6 4.1 90 LegendMM 26 22 6.4 96.64     Rain,Fog
11:00 4.5 2.8 89 LegendMM 27 18 16.1 96.73     Rain
12:00 5.2 3.0 86 LegendMM 28 15 16.1 96.64     LegendNANA
13:00 5.6 1.9 77 LegendMM 26 15 16.1 96.67     LegendNANA
14:00 3.2 1.1 86 LegendMM 28 18 16.1 96.79     Rain
15:00 2.8 0.3 84 LegendMM 26 24 16.1 96.87     Rain
16:00 1.3 0.0 91 LegendMM 28 15 8.1 96.99     Snow
17:00 1.4 -1.6 81 LegendMM 24 17 16.1 97.04     LegendNANA
18:00 0.1 -0.8 94 LegendMM 26 15 1.2 97.11     Snow
19:00 0.0 -0.7 95 LegendMM 24 8 16.1 97.15   -3 LegendNANA
20:00 0.3 -0.3 96 LegendMM 31 11 11.3 97.18     Snow
21:00 0.4 -0.3 95 LegendMM 31 24 4.0 97.24     Snow
22:00 -0.6 -2.4 88 LegendMM 32 30 9.7 97.41   -7 Snow
23:00 -1.5 -3.4 87 LegendMM 32 28 14.5 97.55   -8 Snow

Notes on Data Quality.

Legend

  • E = Estimated
  • M = Missing
  • NA = Not Available*
  • [empty] = Indicates an unobserved value
Date modified: